Location: Macksville High School
(37.9611°N, 99.9654°W)
Time: 09:03:09
(UTC+00:00)

Sich 1 - Pass Details

Date: 27 February 2020
Orbit: 595 x 625 km, 82.5° (Epoch: 28 March)

Event Time Altitude Azimuth Distance (km) Brightness Sun altitude
Rises 12:12:26 0° 338° (NNW) 2,859 6.2 -13.1°
Reaches altitude 10° 12:14:59 10° 324° (NW) 1,956 5.3 -12.6°
Maximum altitude 12:18:24 23° 271° (W) 1,286 4.1 -11.9°
Drops below altitude 10° 12:21:51 10° 218° (SW) 1,959 5.3 -11.2°
Sets 12:24:24 0° 204° (SSW) 2,864 6.3 -10.7°
